Погода в Кагуле

Погода в Кагуле : погода сейчас, прогноз погоды и архив. Всё, что Вы хотите узнать о погоде в Кагуле!

Поиск расширенной информации на нашем сайте:

Другие новости

Новости СМИ2

Главная страница сайта

Новости сайта

03.07.2017

Напоминаем, что на нашем специализированном сайте Метеоцентр.Азия вы можете получить высокодетализированные автоматические прогнозы погоды по пунктам России, СНГ и мира в авиационном формате (включающие направление и скорость ветра, видимость, явления погоды, количество и форму облачности, нижнюю и верхнюю границу облачности).

Рекомендуем: п/э упаковка оптом спб

Погода в Кагуле - сегодня

Время (UTC), дата Ветер
(°,м/с) 
Видим.   Явления Облачность Т
(°С)
Тd
(°С)
f(%) Тe
(°С)
Pmin
(гПа)
dP
(гПа)
Po
(мм)
O2
(г/м3)
Тmin Tmax R s Состояние
почвы
12 18.10.17 210 (ЮЗ) 20000 м    1/0 верхняя 
[Ci fib]
+23.8 +12.1 48 +28  1020.2  -2  755  278           
15 18.10.17 190 (Ю) 20000 м    3/0 верхняя 
[Ci fib]
+21.8 +10.9 50 +24  1019.2  -1.1  754  280           
18 18.10.17 170 (Ю) 10 км    ясно 
+16.4 +11.1 71 +19  1019.5  754  285    +24.2       
21 18.10.17 200 (Ю) 10 км    ясно 
+16.3 +11.2 72 +20  1019.2  -0.3  754  285           
00 19.10.17 190 (Ю) 10 км    ясно 
+15.4 +8.9 65 +16  1018.4  -0.8  754  286           
03 19.10.17 200 (Ю) 10 км    1/1 1000 м 
[Cu med, cong]
+14.4 +7.9 65 +15  1018  -0.5  753  287           
06 19.10.17 190 (Ю) 10 км    5/0 420 м верхняя 
[Ci fib]
+14.3 +8 66 +14  1018.1  0.1  753  287  +13.5         
09 19.10.17 210 (ЮЗ) 10 км    6/0 верхняя 
[Ci fib]
+20.3 +9.8 51 +21  1017.4  -0.4  753  281           
12 19.10.17 220 (ЮЗ) 20000 м    8/0 верхняя 
[Ci fib]
+23.5 +9.5 41 +24  1016  -1.2  752  277           
15 19.10.17 200 (Ю) 20000 м    8/0 верхняя 
[Cs]
+21.1 +9.7 48 +22  1015.7  -0.4  752  279           
18 19.10.17 160 (Ю) 10 км    ясно 
+16.6 +9.8 64 +18  1016.1  0.2  752  284    +24.5       
21 19.10.17 170 (Ю) 10 км    ясно 
+15.2 +11 76 +17  1016.2  752  285           
00 20.10.17 170 (Ю) 10 км    ясно 
+13.7 +11.4 86 +17  1016.2  752  286           
03 20.10.17 190 (Ю) 10 км    ясно 
+11.6 +10 90 +14  1016.7  0.3  752  289           
06 20.10.17 тихо ()   4000 м  дымка  3/0 400 м верхняя 
[Ci fib]
+12.4 +11.5 94 +16  1017.3  0.7  753  288  +9.9         
09 20.10.17 320 (СЗ) 10 км    ясно 
+15.9 +11.9 77 +21  1017.5  0.3  753  284           
12 20.10.17 320 (СЗ) 10 км    ясно 
+20.9 +12.6 59 +26  1016.4  -0.8  752  279           
15 20.10.17 110 (В) 10 км    ясно 
+18.6 +13.9 74 +27  1016.6  0.1  752  281           
18 20.10.17 тихо ()   10 км    ясно 
+15.6 +13.1 85 +21  1017.7  0.9  753  284    +21.5       
21 20.10.17 070 (В) 4000 м  дымка  ясно 
+14.2 +13.4 95 +21  1018.5  0.8  754  286           
00 21.10.17 020 (С) 1000 м  дымка  ясно 
+13.3 +13.1 99 +20  1018.5  -0.1  754  287           
03 21.10.17 тихо ()   0200 м  туман  ?/?  
+12.4 +12.4 100 +17  1018.1  -0.4  753  288  +11.1         
06 21.10.17 130 (ЮВ) 0200 м  туман  ?/?  
+13.8 +13.8 100 +22  1018.3  0.2  753  286  +11.1         
09 21.10.17 220 (ЮЗ) 4000 м  дымка{туман}  8/8 600 м 
[Sc]
+17.2 +14.1 82 +26  1017.7  -0.4  753  283           
12 21.10.17 240 (ЮЗ) 10 км  {туман}  3/3 1000 м 
[Sc]
+19.2 +12.2 64 +24  1015.3  -2.3  751  281           
Время (UTC), дата Ветер
(°,м/с) 
Видим.   Явления Облачность Т
(°С)
Тd
(°С)
f(%) Тe
(°С)
Pmin
(гПа)
dP
(гПа)
Po
(мм)
O2
(г/м3)
Тmin Tmax R s Состояние
почвы

Для получения пояснительной информации подведите курсор к названию столбца.

ПОГОДА в Кагуле - архив

Всё, что Вы хотите узнать о погоде в Кагуле - удобно и подробно!

Выберите нужную дату (начиная с 1 января 2015* года) и нажмите кнопку "Найти".
Будут отображены архивные сводки погоды по пункту Кагул, начиная с указанной даты.


Отображать данные в формате CSV (для использования в таблицах Excel)


Внимание! Наш архив погоды предназначен исключительно для личного некоммерческого использования в познавательных целях. Если Вам необходимы официальные справки о состоянии погоды (для производственных, юридических, коммерческих и т.п. целей), обращайтесь в органы Росгидромета.

*Примечание: данная дата относится к архиву по метеостанциям СССР (Россия, СНГ, Балтия).
Архив по метеостанциям Зарубежной Европы и Азии (кроме Китая) хранится 10 дней, по другим регионам земного шара (Китай, Африка, Америка, Австралия, Океания) - 1 день.

Кагул - район местоположения метеостанции


Название, широта, долгота, высота метеостанции:
Кагул 45.9°ш. 28.2°д. 39 м над ур. моря [Украина]

Дополнительная информация

В oтличие oт бoльшинства пoгoдных сайтoв мы публикуем пoдрoбную метеoинфoрмацию в детальнoм прoфессиoнальнoм фoрмате.

Характеристики температуры и влажнoсти вoздуха измеряются на высoте 2 м в тени вдали oт зданий и деревьев.
Скoрoсть ветра измеряется на высoте 10 м (на урoвне рoста челoвека скoрoсть ветра ниже в 1.5-2 раза). Если метеoстанция нахoдится в гoрoде или в лесу, тo скoрoсть ветра занижена на 2-4 м/с пo сравнению с oткрытым местoм. Скoрoсть ветра над акватoриями крупных рек и oзёр, а также на вершинах хoлмoв на 2-5 м/с выше, чем в oбычных услoвиях.
Атмoсфернoе давление в разных тoчках местнoсти мoжет значительнo oтличаться oт давления на метеoстанции, в зависимoсти oт услoвий рельефа (при пoдъёме на 10 м давление пoнижается примернo на 1 мм рт.ст.).